{"data":{"norad_id":43925,"epoch":"2026-05-25T02:14:22.967232Z","epoch_age_seconds":66695,"freshness":"FRESH","line1":"1 43925U 19002D   26145.09332138  .00000043  00000+0  81981-5 0  9990","line2":"2 43925  86.3982   3.2191 0002281  86.3053 273.8403 14.34217821385641","mean_motion":14.34217821,"eccentricity":0.0002281,"inclination_deg":86.3982,"raan_deg":3.2191,"arg_perigee_deg":86.3053,"mean_anomaly_deg":273.8403,"bstar":8.1981e-6,"rev_number":38564,"period_min":100.40315905404,"perigee_km":776.03467931752,"apogee_km":779.299157065,"semimajor_km":7155.8039181913,"source":"CELESTRAK","updated_at":"2026-05-25T13:38:14.814476Z"}}